(175758) = 1998 SH21 = 2004 CD78

Discovered at Kitt Peak on 1998-09-21 by Spacewatch.

Orbit

Orbit type: Main Belt

Note: WebGL enabled browser required.

epoch2022-01-21.0
epoch JD2459600.5
perihelion date2019-06-01.98392
perihelion JD2458636.48392
argument of perihelion (°)191.25391
ascending node (°)28.19655
inclination (°)2.63888
eccentricity0.1612839
perihelion distance (AU)2.0032009
Tisserand w.r.t. Jupiter3.5
ΔV w.r.t. Earth (km/sec)8.9
semimajor axis (AU)2.3884136
mean anomaly (°)257.40906
mean daily motion (°/day)0.26701740
aphelion distance (AU)2.774
period (years)3.69
P-vector [x]-0.77227199
P-vector [y]-0.57923663
P-vector [z]-0.26092317
Q-vector [x]0.63491947
Q-vector [y]-0.68965309
Q-vector [z]-0.34821815
absolute magnitude16.92
phase slope0.15
uncertainty0
referenceMPO 694806
observations used485
oppositions17
arc length (days)8532
first opposition used1998
last opposition used2022
residual rms (arc-secs)0.81
perturbers coarse indicatorM-v
perturbers precise indicator003Ek
first observation date used1998-09-21.0
last observation date used2022-01-30.0
computer namePan
JD of orbit computation2456639.623404
perihelion JD uncertainty (days)6.6155E-05
argument of perihelion uncertainty (°)1.1258E-04
ascending node uncertainty (°)1.1141E-04
inclination uncertainty (°)7.4030E-06
eccentricity uncertainty 6.7061E-08
perihelion distance uncertainty (AU)1.5667E-07
Minimum Orbit Intersection Distances (in AU)
for orbit epoch: 2459200.5, reference: E2021-B55
Mercury1.55125
Venus1.2801
Earth0.99331
Mars0.39821
Jupiter2.19482
Saturn6.40738
Uranus16.1728
Neptune27.1333

Observations

489 total observations over interval: 1998 09 21.39584 – 2022 01 30.216718
These data are available for download (format description).

Date (UT) J2000 RA J2000 Dec Magn Location Ref
1998 09 21.39584 01 11 47.72 +06 18 53.0 21.1 V 691 – Steward Observatory, Kitt Peak-Spacewatch MPS 2358
1998 09 21.42854 01 11 46.05 +06 18 44.4 21.2 V 691 – Steward Observatory, Kitt Peak-Spacewatch MPS 2358
1998 09 21.44972 01 11 44.94 +06 18 39.2 21.0 V 691 – Steward Observatory, Kitt Peak-Spacewatch MPS 2358
1998 09 23.45602 01 10 03.27 +06 09 46.6 20.8 V 691 – Steward Observatory, Kitt Peak-Spacewatch MPS 2358
1998 09 23.47746 01 10 02.11 +06 09 41.1 20.7 V 691 – Steward Observatory, Kitt Peak-Spacewatch MPS 2358
1998 09 23.50289 01 10 00.78 +06 09 34.2 21.2 V 691 – Steward Observatory, Kitt Peak-Spacewatch MPS 2358
1998 09 27.35326 01 06 36.86 +05 51 43.2 21.0 V 691 – Steward Observatory, Kitt Peak-Spacewatch MPS 2358
1998 09 27.37492 01 06 35.65 +05 51 36.7 21.0 V 691 – Steward Observatory, Kitt Peak-Spacewatch MPS 2358
1998 09 27.39597 01 06 34.48 +05 51 30.7 20.9 V 691 – Steward Observatory, Kitt Peak-Spacewatch MPS 2358
2001 07 18.26932 19 38 48.67 -26 24 14.1 19.5   644 – Palomar Mountain/NEAT MPS 100844
2001 07 18.28078 19 38 47.93 -26 24 15.3 19.4   644 – Palomar Mountain/NEAT MPS 100844
2001 07 18.29231 19 38 47.19 -26 24 17.1 19.2   644 – Palomar Mountain/NEAT MPS 100844
2002 10 31.34412 02 44 27.93 +16 54 02.1 21.6 V 291 – LPL/Spacewatch II MPS 106051
2002 10 31.37021 02 44 26.34 +16 53 56.0 21.3 V 291 – LPL/Spacewatch II MPS 106051
2002 10 31.39429 02 44 24.83 +16 53 50.1 21.6 V 291 – LPL/Spacewatch II MPS 106051
2004 01 22.35890 10 54 53.55 +11 03 52.4 19.6   704 – Lincoln Laboratory ETS, New Mexico MPS 100729
2004 01 22.37170 10 54 53.27 +11 03 54.7 20.0   704 – Lincoln Laboratory ETS, New Mexico MPS 100729
2004 01 22.38462 10 54 53.06 +11 03 56.3 20.2   704 – Lincoln Laboratory ETS, New Mexico MPS 100729
2004 01 22.39748 10 54 52.80 +11 03 57.6 20.9   704 – Lincoln Laboratory ETS, New Mexico MPS 100729
2004 02 11.38865 10 43 48.94 +12 20 22.1 19.4 R 699 – Lowell Observatory-LONEOS MPS 100189
2004 02 11.40892 10 43 47.79 +12 20 29.1   699 – Lowell Observatory-LONEOS MPS 100189
2004 02 11.42925 10 43 46.83 +12 20 33.9   699 – Lowell Observatory-LONEOS MPS 100189
2004 02 11.43966 10 43 46.34 +12 20 37.7 19.0   644 – Palomar Mountain/NEAT MPS 100189
2004 02 11.44959 10 43 45.70 +12 20 39.4   699 – Lowell Observatory-LONEOS MPS 100189
2004 02 11.46109 10 43 45.24 +12 20 44.1 19.4   644 – Palomar Mountain/NEAT MPS 100189
2004 02 11.48440 10 43 44.02 +12 20 51.1 19.2   644 – Palomar Mountain/NEAT MPS 100189
2004 02 17.27782 10 38 37.70 +12 50 03.8 19.3   704 – Lincoln Laboratory ETS, New Mexico MPS 100189
2004 02 17.28962 10 38 37.00 +12 50 06.8 19.4   704 – Lincoln Laboratory ETS, New Mexico MPS 100189
2004 02 17.30153 10 38 36.31 +12 50 11.0 19.6   704 – Lincoln Laboratory ETS, New Mexico MPS 100189
2004 02 17.31344 10 38 35.52 +12 50 14.4 19.9   704 – Lincoln Laboratory ETS, New Mexico MPS 100189
2004 02 17.32533 10 38 34.90 +12 50 17.9 19.7   704 – Lincoln Laboratory ETS, New Mexico MPS 100189
2004 02 23.27780 10 32 48.25 +13 20 43.6 18.9   704 – Lincoln Laboratory ETS, New Mexico MPS 100189
2004 02 23.29172 10 32 47.32 +13 20 49.8 19.8   704 – Lincoln Laboratory ETS, New Mexico MPS 100189
2004 02 23.30317 10 32 46.65 +13 20 52.7 19.6   704 – Lincoln Laboratory ETS, New Mexico MPS 100189
2004 02 23.31712 10 32 45.76 +13 20 56.4 19.9   704 – Lincoln Laboratory ETS, New Mexico MPS 100189
2004 02 23.33137 10 32 44.88 +13 21 00.5 19.9   704 – Lincoln Laboratory ETS, New Mexico MPS 100189
2004 02 29.22733 10 26 48.57 +13 49 41.5 19.6 V 691 – Steward Observatory, Kitt Peak-Spacewatch MPS 100729
2004 02 29.26090 10 26 46.46 +13 49 50.9 19.6 V 691 – Steward Observatory, Kitt Peak-Spacewatch MPS 100729
2004 02 29.29159 10 26 44.53 +13 49 59.3 19.5 V 691 – Steward Observatory, Kitt Peak-Spacewatch MPS 100730
2004 03 15.22651 10 12 52.38 +14 44 45.2 19.4   704 – Lincoln Laboratory ETS, New Mexico MPS 101233
2004 03 15.23759 10 12 51.87 +14 44 47.4 20.0   704 – Lincoln Laboratory ETS, New Mexico MPS 101233
2004 03 15.25958 10 12 50.85 +14 44 50.6 20.3   704 – Lincoln Laboratory ETS, New Mexico MPS 101233
2004 03 15.27054 10 12 50.32 +14 44 52.6 19.6   704 – Lincoln Laboratory ETS, New Mexico MPS 101233
2004 03 19.28075 10 09 50.17 +14 53 27.2 19.5   704 – Lincoln Laboratory ETS, New Mexico MPS 102239
2004 03 19.29168 10 09 49.65 +14 53 27.7 19.8   704 – Lincoln Laboratory ETS, New Mexico MPS 102239
2004 03 19.30256 10 09 49.21 +14 53 28.8 19.9   704 – Lincoln Laboratory ETS, New Mexico MPS 102239
2004 03 19.31340 10 09 48.71 +14 53 29.7 19.7   704 – Lincoln Laboratory ETS, New Mexico MPS 102239
2004 03 19.32417 10 09 48.20 +14 53 30.8 20.5   704 – Lincoln Laboratory ETS, New Mexico MPS 102239
2004 03 22.29853 10 07 51.84 +14 57 55.6 20.1   704 – Lincoln Laboratory ETS, New Mexico MPS 102239
2004 03 22.30981 10 07 51.45 +14 57 57.0 20.0   704 – Lincoln Laboratory ETS, New Mexico MPS 102239
2004 03 22.32107 10 07 51.07 +14 57 57.2 20.1   704 – Lincoln Laboratory ETS, New Mexico MPS 102239
2004 03 22.33216 10 07 50.53 +14 57 58.3 20.1   704 – Lincoln Laboratory ETS, New Mexico MPS 102239
2004 03 26.12019 10 05 46.66 +15 01 04.0 20.1 V 691 – Steward Observatory, Kitt Peak-Spacewatch MPS 103165
2004 03 26.15202 10 05 45.65 +15 01 05.1 20.1 V 691 – Steward Observatory, Kitt Peak-Spacewatch MPS 103165
2004 03 26.18514 10 05 44.61 +15 01 06.0 20.0 V 691 – Steward Observatory, Kitt Peak-Spacewatch MPS 103165
2005 08 05.44373 22 54 17.56 -10 57 14.4 20.8   644 – Palomar Mountain/NEAT MPS 139199
2005 08 05.45381 22 54 17.11 -10 57 16.3 20.4   644 – Palomar Mountain/NEAT MPS 139199
2005 08 05.46562 22 54 16.57 -10 57 19.8 20.6   644 – Palomar Mountain/NEAT MPS 139199
2006 11 16.32471 04 51 37.48 +25 03 47.3 20.8 V 691 – Steward Observatory, Kitt Peak-Spacewatch MPS 186705
2006 11 16.34211 04 51 36.46 +25 03 46.9 21.0 V 691 – Steward Observatory, Kitt Peak-Spacewatch MPS 186705
2006 11 16.35951 04 51 35.46 +25 03 46.4 21.0 V 691 – Steward Observatory, Kitt Peak-Spacewatch MPS 186705
2006 11 30.25540 04 36 51.01 +24 50 54.8 21.2 V 691 – Steward Observatory, Kitt Peak-Spacewatch MPS 190237
2006 11 30.27277 04 36 49.82 +24 50 54.1 21.1 V 691 – Steward Observatory, Kitt Peak-Spacewatch MPS 190237
2006 11 30.29058 04 36 48.61 +24 50 51.8 21.0 V 691 – Steward Observatory, Kitt Peak-Spacewatch MPS 190237
2006 12 17.25486 04 18 13.53 +24 19 12.8 20.7 V G96 – Mt. Lemmon Survey MPS 191733
2006 12 17.25937 04 18 13.24 +24 19 13.1 20.5 V G96 – Mt. Lemmon Survey MPS 191733
2006 12 17.26389 04 18 12.96 +24 19 12.1 20.8 V G96 – Mt. Lemmon Survey MPS 191733
2006 12 17.26839 04 18 12.70 +24 19 11.4 20.5 V G96 – Mt. Lemmon Survey MPS 191733
2006 12 24.22039 04 11 43.62 +24 04 07.5 20.2 V G96 – Mt. Lemmon Survey MPS 191733
2006 12 24.23348 04 11 42.90 +24 04 05.6 20.6 V G96 – Mt. Lemmon Survey MPS 191733
2006 12 24.24391 04 11 42.32 +24 04 04.3 20.6 V G96 – Mt. Lemmon Survey MPS 191733
2006 12 24.25818 04 11 41.60 +24 04 02.0 20.6 V G96 – Mt. Lemmon Survey MPS 191733
2008 01 20.48458 13 49 48.32 -09 47 56.4 21.5 V G96 – Mt. Lemmon Survey MPS 235020
2008 01 20.49009 13 49 48.79 -09 47 59.4 20.3 V G96 – Mt. Lemmon Survey MPS 235020
2008 01 20.49551 13 49 49.18 -09 48 02.3 20.9 V G96 – Mt. Lemmon Survey MPS 235020
2008 01 20.50098 13 49 49.62 -09 48 04.8 20.4 V G96 – Mt. Lemmon Survey MPS 235020
2008 02 13.44994 14 18 23.11 -12 35 21.3 20.4 V G96 – Mt. Lemmon Survey MPS 237338
2008 02 13.45501 14 18 23.40 -12 35 23.2 20.4 V G96 – Mt. Lemmon Survey MPS 237338
2008 02 13.46021 14 18 23.68 -12 35 24.6 20.1 V G96 – Mt. Lemmon Survey MPS 237338
2008 02 13.46532 14 18 23.97 -12 35 26.7 20.5 V G96 – Mt. Lemmon Survey MPS 237338
2008 03 31.35148 14 32 11.70 -14 46 17.1 19.2 V 691 – Steward Observatory, Kitt Peak-Spacewatch MPS 245595
2008 03 31.36910 14 32 11.14 -14 46 17.1 19.3 V 691 – Steward Observatory, Kitt Peak-Spacewatch MPS 245595
2008 03 31.38672 14 32 10.56 -14 46 16.7 19.4 V 691 – Steward Observatory, Kitt Peak-Spacewatch MPS 245595
2008 04 06.36351 14 28 45.71 -14 41 53.5 19.2   704 – Lincoln Laboratory ETS, New Mexico MPS 246622
2008 04 06.37524 14 28 45.22 -14 41 52.6 18.9   704 – Lincoln Laboratory ETS, New Mexico MPS 246622
